Jaipur, India

2:28 PM IST on March 25, 2017 (GMT +0530)
Jaipur

Weather History for VIJP - June, 2013

Change the Weather History Date:

Thursday, June 27, 2013

  Actual Average Record
Temperature  
Mean Temperature 88 °F -  
Max Temperature 100 °F - - ()
Min Temperature 75 °F - - ()
Cooling Degree Days 22    
Growing Degree Days 38 (Base 50)    
Moisture  
Dew Point 75 °F    
Average Humidity 66    
Maximum Humidity 94    
Minimum Humidity 30    
Precipitation  
Precipitation 0.00 in - - ()
Sea Level Pressure  
Sea Level Pressure 29.52 in    
Wind  
Wind Speed 6 mph ()    
Max Wind Speed 15 mph    
Max Gust Speed -    
Visibility 2.0 miles    
Events      
T = Trace of Precipitation, MM = Missing Value Source: Averaged Metar Reports

Daily Weather History Graph

Daily Weather History Graph

Search for Another Location

Airport or City:

Trip Planner

Search our weather history database for the weather conditions in past years. The results will help you decide how hot, cold, wet, or windy it might be!

Date:

Astronomy

Jun. 27, 2013 Rise Set
Actual Time 5:35 AM IST 7:24 PM IST
Civil Twilight 5:08 AM IST 7:50 PM IST
Nautical Twilight 4:37 AM IST 8:22 PM IST
Astronomical Twilight 4:03 AM IST 8:55 PM IST
Moon 10:34 PM IST (6/27) 9:40 AM IST (6/27)
Length of Visible Light 14h 41m
Length of Day
13h 49m
Waning Gibbous, 80% of the Moon is Illuminated
Jun 27
Waning Gibbous
Jun 30
Last Quarter
Jul 8
New
Jul 16
First Quarter
Jul 22
Full

Hourly Weather History & Observations

Time (IST) Temp. Heat Index Dew Point Humidity Pressure Visibility Wind Dir Wind Speed Gust Speed Precip Events Conditions
12:00 AM 80.6 °F 86.2 °F 75.2 °F 84% 29.56 in 1.6 mi WSW 4.6 mph - N/A   Haze
1:00 AM 80.6 °F 86.2 °F 75.2 °F 84% 29.56 in 1.6 mi West 3.5 mph - N/A   Haze
2:00 AM 80.6 °F 86.2 °F 75.2 °F 84% 29.53 in 1.6 mi Calm Calm - N/A   Haze
3:00 AM 78.8 °F - 75.2 °F 89% 29.53 in 1.6 mi SE 4.6 mph - N/A   Haze
4:00 AM 78.8 °F - 77.0 °F 94% 29.53 in 1.6 mi SE 4.6 mph - N/A   Haze
5:00 AM 78.8 °F - 77.0 °F 94% 29.53 in 1.6 mi ESE 5.8 mph - N/A   Haze
5:30 AM 78.8 °F - 77.0 °F 94% 29.53 in 1.6 mi East 4.6 mph - N/A   Scattered Clouds
6:00 AM 78.8 °F - 77.0 °F 94% 29.53 in 1.6 mi Variable 2.3 mph - N/A   Scattered Clouds
6:30 AM 78.8 °F - 77.0 °F 94% 29.53 in 1.6 mi Variable 2.3 mph - N/A   Partly Cloudy
7:00 AM 80.6 °F 87.1 °F 77.0 °F 89% 29.53 in 1.6 mi West 3.5 mph - N/A   Partly Cloudy
8:00 AM 84.2 °F 94.1 °F 77.0 °F 79% 29.56 in 1.6 mi West 5.8 mph - N/A   Partly Cloudy
8:30 AM 85 °F - 78 °F 73% 29.49 in 1 mi West 5.8 mph - -   Haze
9:00 AM 87.8 °F 97.6 °F 75.2 °F 66% 29.59 in 1.6 mi WNW 10.4 mph - N/A   Partly Cloudy
10:00 AM 87.8 °F 95.6 °F 73.4 °F 62% 29.59 in 1.9 mi WNW 12.7 mph - N/A   Haze
11:00 AM 89.6 °F 99.8 °F 75.2 °F 62% 29.56 in 1.9 mi West 13.8 mph - N/A   Haze
11:30 AM 92 °F - 75 °F 49% 29.48 in 2 mi West 15.0 mph - -   Haze
12:00 PM 91.4 °F 102.5 °F 75.2 °F 59% 29.56 in 3.1 mi WNW 10.4 mph - N/A   Haze
1:00 PM 95.0 °F 107.4 °F 75.2 °F 53% 29.56 in 3.1 mi West 10.4 mph - N/A   Haze
2:00 PM 95.0 °F 107.4 °F 75.2 °F 53% 29.53 in 3.1 mi West 10.4 mph - N/A   Haze
2:30 PM 98 °F - 74 °F 36% 29.46 in 2 mi WNW 10.4 mph - -   Haze
3:00 PM 96.8 °F 107.3 °F 73.4 °F 47% 29.50 in 3.1 mi WNW 8.1 mph - N/A   Haze
4:00 PM 96.8 °F 107.3 °F 73.4 °F 47% 29.47 in 3.1 mi WNW 9.2 mph - N/A   Haze
5:00 PM 98.6 °F 109.2 °F 73.4 °F 44% 29.47 in 2.5 mi West 11.5 mph - N/A   Haze
5:30 PM 99 °F - 71 °F 30% 29.39 in 1 mi West 11.5 mph - -   Haze
6:00 PM 96.8 °F 105.1 °F 71.6 °F 44% 29.47 in 2.5 mi West 11.5 mph - N/A   Haze
7:00 PM 95.0 °F 103.2 °F 71.6 °F 47% 29.47 in 2.5 mi West 9.2 mph - N/A   Haze
8:00 PM 93.2 °F 100.5 °F 71.6 °F 49% 29.50 in 2.5 mi West 9.2 mph - N/A   Haze
8:30 PM 94 °F - 72 °F 40% 29.41 in 2 mi WSW 5.8 mph - -   Partly Cloudy
9:00 PM 93.2 °F 102.4 °F 73.4 °F 52% 29.53 in 2.2 mi SW 4.6 mph - N/A   Haze
10:00 PM 86.0 °F 96.9 °F 77.0 °F 74% 29.56 in 2.2 mi SE 8.1 mph - N/A   Haze
11:00 PM 82.4 °F 90.9 °F 77.0 °F 84% 29.56 in 2.2 mi SE 4.6 mph - N/A   Haze
11:30 PM 83 °F - 76 °F 74% 29.48 in 1 mi SE 2.3 mph - -   Haze